Regional Weather Roundup
Issued by NWS

Home | Current Version | Previous Version | Graphics & Text | Print | Product List | Glossary On
Versions: 1 2 3 4 5 6 7 8 9 10 11 12 13 14 15 16 17 18 19 20 21 22 23 24 25 26 27 28 29 30 31 32 33 34 35 36 37 38 39 40 41 42 43 44 45 46 47 48 49 50
000
ASUS43 KIND 120459
RWRIN

WEATHER ROUNDUP FOR INDIANA
NATIONAL WEATHER SERVICE INDIANAPOLIS IN
100 AM EDT SAT JUL 12 2014

NOTE: "FAIR" INDICATES FEW OR NO CLOUDS BELOW 12,000 FEET WITH NO
SIGNIFICANT WEATHER AND/OR OBSTRUCTIONS TO VISIBILITY.

* - STATION DOES NOT REPORT WEATHER SUCH AS PRECIPITATION OR FOG.

+ - STATION NOT QUALITY CONTROLLED BY THE NATIONAL WEATHER SERVICE.
    USE DATA WITH CAUTION...ESPECIALLY DEWPOINT AND RELATIVE
    HUMIDITY OBSERVATIONS.

INZ001>003-010>013-019-020-120600-
NORTHWEST INDIANA

CITY           SKY/WX    TMP DP  RH WIND       PRES   REMARKS
RENSSELAER +   CLOUDY    70  66  88 CALM      30.16S
VALPARAISO     CLOUDY    68  62  81 E3        30.16S

$$

LMZ046-743>745-120600-
SOUTHERN LAKE MICHIGAN

STATION/POSITION TIME  TEMP WIND        PRES
                       AIR  DIR/SP/G
                 (UTC) (F)  (DEG/KT/KT) (MB)
MICHIGAN CITY    0400   74  140/  6/  8   N/A

$$

INZ004-005-014>016-021>024-120600-
NORTH CENTRAL INDIANA

CITY           SKY/WX    TMP DP  RH WIND       PRES   REMARKS
GOSHEN         MOCLDY    69  64  84 CALM      30.17S
SOUTH BEND     CLOUDY    72  61  68 CALM      30.17R

$$

INZ006>009-017-018-025>027-120600-
NORTHEAST INDIANA

CITY           SKY/WX    TMP DP  RH WIND       PRES   REMARKS
ANGOLA *+      CLOUDY    66  57  72 CALM      30.18F
FORT WAYNE     CLOUDY    71  63  75 CALM      30.18F

$$

INZ028-029-035-036-043>045-051>053-120600-
WEST CENTRAL INDIANA

CITY           SKY/WX    TMP DP  RH WIND       PRES   REMARKS
GREENCASTLE +  MOCLDY    68  61  77 CALM      30.18R
LAFAYETTE      CLOUDY    69  62  78 CALM      30.16R
TERRE HAUTE    CLOUDY    71  62  73 CALM      30.15S

$$

INZ030>032-037>040-046>048-054>057-064-065-120600-
CENTRAL INDIANA

CITY           SKY/WX    TMP DP  RH WIND       PRES   REMARKS
INDIANAPOLIS   MOCLDY    70  61  73 SE5       30.17R
-EAGLE CREEK   PTCLDY    67  62  84 CALM      30.17R
KOKOMO *+      MOCLDY    66  63  88 CALM      30.18S
MT COMFORT *+  PTCLDY    63 N/A N/A SE3       30.18F
SHELBYVILLE    PTCLDY    65  61  87 E5        30.18R

$$

INZ033-034-041-042-049-050-058-059-120600-
EAST CENTRAL INDIANA

CITY           SKY/WX    TMP DP  RH WIND       PRES   REMARKS
MUNCIE         MOCLDY    69  60  73 E3        30.18S

$$

INZ060-061-067>069-081>083-085>088-120600-
SOUTHWEST INDIANA

CITY           SKY/WX    TMP DP  RH WIND       PRES   REMARKS
EVANSVILLE     CLEAR     74  65  73 CALM      30.16R
HUNTINGBURG *+ CLEAR     70  63  78 SE6       30.17S

$$

INZ062-063-066-070>080-084-089>092-120600-
SOUTH CENTRAL AND SOUTHEAST INDIANA

CITY           SKY/WX    TMP DP  RH WIND       PRES   REMARKS
BLOOMINGTON    PTCLDY    63  61  93 CALM      30.18R
SEYMOUR +      PTCLDY    59  52  77 CALM      30.17

$$




USA.gov is the U.S. government's official web portal to all federal, state and local government web resources and services.